Location: Newark
(46.7000°N, 66.1167°W)
Time: 11:51:23
(UTC+00:00)

Tiangong 2 - Visible Passes

Search period start: 20 March 2019 00:00
Search period end: 30 March 2019 00:00
Orbit: 379 x 390 km, 42.8° (Epoch: 19 March)

Date Brightness Start Highest point End Pass type
(mag) Time Alt. Az. Time Alt. Az. Time Alt. Az.
20 Mar 3.6 08:08:17 17° ESE 08:08:17 17° ESE 08:09:12 10° ESE visible
20 Mar 2.8 09:40:31 12° WSW 09:42:32 20° SSW 09:44:59 10° SSE visible
21 Mar 2.6 08:43:55 25° S 08:43:55 25° S 08:45:59 10° SE visible
22 Mar 3.1 09:19:39 14° SW 09:20:05 14° SSW 09:21:52 10° S visible
